When you browse on this site, cookies collect data to enhance your experience and personalize the content and advertising you see.
Visit our Privacy Policy to learn more. By continuing to use the site, you agree to this use of cookies and data.
  • In Netherlands
  • List of Countries
  • For 7 days
  • Water Temperature
  • Satellite Maps
  • Weather Map
  • Weather Widgets
  • user-avatar
    Login

    Hourly Weather Aracaju

    Today, 20 July, Saturday

    Time Temperature Precipitation Wind Pressure Humidity
    00:00 +23°C° 0.2 mm 5 mps 763 mmHg 86%
    01:00 +23°C° 0.2 mm 5 mps 763 mmHg 87%
    02:00 +23°C° 0.7 mm 5 mps 763 mmHg 86%
    03:00 +23°C° 0.7 mm 6 mps 762 mmHg 86%
    04:00 +23°C° 0.7 mm 6 mps 762 mmHg 85%
    05:00 +23°C° 0.2 mm 6 mps 762 mmHg 84%
    06:00 +23°C° 0.2 mm 6 mps 763 mmHg 83%
    07:00 +23°C° 0.2 mm 5 mps 763 mmHg 82%
    08:00 +24°C° 0.1 mm 6 mps 763 mmHg 79%
    09:00 +26°C° 0.1 mm 6 mps 763 mmHg 75%
    10:00 +27°C° 0.1 mm 6 mps 764 mmHg 72%
    11:00 +27°C° 0.1 mm 6 mps 763 mmHg 70%
    12:00 +28°C° 0.1 mm 6 mps 763 mmHg 69%
    13:00 +28°C° 0.1 mm 6 mps 763 mmHg 67%
    14:00 +28°C° 0 mm 6 mps 762 mmHg 68%
    15:00 +28°C° 0 mm 5 mps 762 mmHg 70%
    16:00 +27°C° 0 mm 5 mps 762 mmHg 71%
    17:00 +27°C° 0 mm 5 mps 762 mmHg 73%
    18:00 +26°C° 0 mm 4 mps 762 mmHg 76%
    19:00 +25°C° 0 mm 4 mps 762 mmHg 78%
    20:00 +25°C° 0.2 mm 4 mps 762 mmHg 80%
    21:00 +25°C° 0.2 mm 4 mps 763 mmHg 82%
    22:00 +25°C° 0.2 mm 4 mps 763 mmHg 85%
    23:00 +25°C° 0.8 mm 5 mps 763 mmHg 85%

    Tomorrow, 21 July, Sunday

    Time Temperature Precipitation Wind Pressure Humidity
    00:00 +25°C° 0.8 mm 5 mps 763 mmHg 86%
    01:00 +24°C° 0.8 mm 6 mps 763 mmHg 87%
    02:00 +24°C° 0.7 mm 6 mps 762 mmHg 86%
    03:00 +24°C° 0.7 mm 6 mps 762 mmHg 85%
    04:00 +24°C° 0.7 mm 6 mps 762 mmHg 84%
    05:00 +23°C° 0.1 mm 5 mps 762 mmHg 85%
    06:00 +23°C° 0.1 mm 5 mps 762 mmHg 85%
    07:00 +23°C° 0.1 mm 5 mps 762 mmHg 85%
    08:00 +25°C° 0.5 mm 5 mps 762 mmHg 85%
    09:00 +25°C° 0.5 mm 5 mps 763 mmHg 84%
    10:00 +25°C° 0.5 mm 5 mps 763 mmHg 84%
    11:00 +26°C° 0.8 mm 5 mps 763 mmHg 83%
    12:00 +26°C° 0.8 mm 5 mps 763 mmHg 82%
    13:00 +26°C° 0.8 mm 5 mps 762 mmHg 81%
    14:00 +26°C° 0.6 mm 6 mps 762 mmHg 81%
    15:00 +26°C° 0.6 mm 6 mps 762 mmHg 81%
    16:00 +27°C° 0.6 mm 6 mps 761 mmHg 80%
    17:00 +26°C° 0.8 mm 6 mps 761 mmHg 82%
    18:00 +24°C° 0.8 mm 6 mps 762 mmHg 84%
    19:00 +24°C° 0.8 mm 6 mps 762 mmHg 86%
    20:00 +24°C° 0.8 mm 6 mps 762 mmHg 86%
    21:00 +24°C° 0.8 mm 6 mps 763 mmHg 86%
    22:00 +24°C° 0.8 mm 6 mps 763 mmHg 86%
    23:00 +24°C° 0.4 mm 6 mps 763 mmHg 85%

    Day after tomorrow, 22 July, Monday

    Time Temperature Precipitation Wind Pressure Humidity
    00:00 +23°C° 0.4 mm 5 mps 763 mmHg 85%
    01:00 +23°C° 0.4 mm 5 mps 763 mmHg 84%
    02:00 +23°C° 0 mm 5 mps 762 mmHg 84%
    03:00 +23°C° 0 mm 4 mps 762 mmHg 84%
    04:00 +22°C° 0 mm 3 mps 761 mmHg 84%
    05:00 +22°C° 0 mm 3 mps 761 mmHg 84%
    06:00 +22°C° 0 mm 3 mps 761 mmHg 84%
    07:00 +22°C° 0 mm 3 mps 762 mmHg 84%
    08:00 +23°C° 0.4 mm 4 mps 762 mmHg 83%
    09:00 +25°C° 0.4 mm 4 mps 762 mmHg 82%
    10:00 +26°C° 0.4 mm 5 mps 762 mmHg 80%
    11:00 +26°C° 0.9 mm 6 mps 762 mmHg 81%
    12:00 +26°C° 0.9 mm 6 mps 762 mmHg 82%
    13:00 +26°C° 0.9 mm 6 mps 762 mmHg 82%
    14:00 +26°C° 0.4 mm 6 mps 762 mmHg 80%
    15:00 +26°C° 0.4 mm 6 mps 761 mmHg 78%
    16:00 +27°C° 0.4 mm 6 mps 761 mmHg 75%
    17:00 +26°C° 0.2 mm 5 mps 761 mmHg 78%
    18:00 +25°C° 0.2 mm 5 mps 761 mmHg 81%
    19:00 +25°C° 0.2 mm 5 mps 761 mmHg 85%
    20:00 +25°C° 0.4 mm 5 mps 762 mmHg 85%
    21:00 +25°C° 0.4 mm 5 mps 762 mmHg 86%
    22:00 +23°C° 0.4 mm 5 mps 763 mmHg 87%
    23:00 +23°C° 0.5 mm 4 mps 762 mmHg 87%

    23 July, Tuesday

    Time Temperature Precipitation Wind Pressure Humidity
    00:00 +23°C° 0.5 mm 4 mps 762 mmHg 88%
    01:00 +23°C° 0.5 mm 4 mps 762 mmHg 88%
    02:00 +23°C° 0.4 mm 4 mps 762 mmHg 88%
    03:00 +23°C° 0.4 mm 4 mps 761 mmHg 87%
    04:00 +23°C° 0.4 mm 5 mps 761 mmHg 87%
    05:00 +23°C° 0.6 mm 5 mps 761 mmHg 87%
    06:00 +23°C° 0.6 mm 5 mps 761 mmHg 86%
    07:00 +23°C° 0.6 mm 5 mps 761 mmHg 86%
    08:00 +25°C° 0.2 mm 5 mps 762 mmHg 82%
    09:00 +26°C° 0.2 mm 5 mps 762 mmHg 78%
    10:00 +27°C° 0.2 mm 6 mps 763 mmHg 74%
    11:00 +28°C° 0 mm 6 mps 762 mmHg 72%
    12:00 +28°C° 0 mm 6 mps 762 mmHg 69%
    13:00 +28°C° 0 mm 6 mps 762 mmHg 67%
    14:00 +28°C° 0 mm 5 mps 761 mmHg 68%
    15:00 +28°C° 0 mm 5 mps 761 mmHg 69%
    16:00 +28°C° 0 mm 4 mps 760 mmHg 70%
    17:00 +27°C° 0 mm 4 mps 761 mmHg 73%
    18:00 +26°C° 0 mm 3 mps 761 mmHg 77%
    19:00 +25°C° 0 mm 3 mps 761 mmHg 80%
    20:00 +25°C° 0.1 mm 3 mps 761 mmHg 82%
    21:00 +25°C° 0.1 mm 3 mps 762 mmHg 84%
    22:00 +25°C° 0.1 mm 3 mps 762 mmHg 86%
    23:00 +25°C° 0.2 mm 4 mps 762 mmHg 86%

    24 July, Wednesday

    Time Temperature Precipitation Wind Pressure Humidity
    00:00 +25°C° 0.2 mm 4 mps 762 mmHg 86%
    01:00 +25°C° 0.2 mm 4 mps 761 mmHg 85%
    02:00 +25°C° 0.1 mm 4 mps 761 mmHg 85%
    03:00 +25°C° 0.1 mm 4 mps 761 mmHg 85%
    04:00 +25°C° 0.1 mm 4 mps 761 mmHg 84%
    05:00 +25°C° 0.1 mm 4 mps 761 mmHg 85%
    06:00 +25°C° 0.1 mm 4 mps 761 mmHg 85%
    07:00 +25°C° 0.1 mm 3 mps 761 mmHg 86%
    08:00 +26°C° 0.1 mm 4 mps 761 mmHg 83%
    09:00 +27°C° 0.1 mm 4 mps 762 mmHg 80%
    10:00 +28°C° 0.1 mm 5 mps 762 mmHg 77%
    11:00 +28°C° 0.1 mm 5 mps 762 mmHg 74%
    12:00 +28°C° 0.1 mm 5 mps 761 mmHg 72%
    13:00 +29°C° 0.1 mm 5 mps 761 mmHg 70%
    14:00 +28°C° 0.1 mm 5 mps 761 mmHg 71%
    15:00 +28°C° 0.1 mm 5 mps 760 mmHg 72%
    16:00 +28°C° 0.1 mm 5 mps 760 mmHg 73%
    17:00 +27°C° 0.1 mm 5 mps 760 mmHg 77%
    18:00 +26°C° 0.1 mm 4 mps 760 mmHg 81%
    19:00 +25°C° 0.1 mm 4 mps 761 mmHg 85%
    20:00 +25°C° 0.1 mm 4 mps 761 mmHg 85%
    21:00 +25°C° 0.1 mm 4 mps 761 mmHg 86%
    22:00 +25°C° 0.1 mm 4 mps 762 mmHg 87%
    23:00 +25°C° 0.1 mm 3 mps 762 mmHg 87%

    25 July, Thursday

    Time Temperature Precipitation Wind Pressure Humidity
    00:00 +25°C° 0.1 mm 3 mps 761 mmHg 86%
    01:00 +25°C° 0.1 mm 3 mps 761 mmHg 86%
    02:00 +25°C° 0.2 mm 3 mps 761 mmHg 87%
    03:00 +25°C° 0.2 mm 3 mps 761 mmHg 87%
    04:00 +25°C° 0.2 mm 3 mps 760 mmHg 88%
    05:00 +24°C° 0.7 mm 3 mps 760 mmHg 88%
    06:00 +24°C° 0.7 mm 3 mps 761 mmHg 88%
    07:00 +24°C° 0.7 mm 3 mps 761 mmHg 89%
    08:00 +25°C° 0.9 mm 4 mps 761 mmHg 87%
    09:00 +26°C° 0.9 mm 5 mps 762 mmHg 85%
    10:00 +27°C° 0.9 mm 6 mps 762 mmHg 83%
    11:00 +27°C° 0.8 mm 6 mps 762 mmHg 82%
    12:00 +27°C° 0.8 mm 6 mps 761 mmHg 81%
    13:00 +27°C° 0.8 mm 7 mps 761 mmHg 81%
    14:00 +27°C° 0.6 mm 6 mps 761 mmHg 81%
    15:00 +27°C° 0.6 mm 6 mps 761 mmHg 82%
    16:00 +27°C° 0.6 mm 6 mps 760 mmHg 82%
    17:00 +26°C° 0.4 mm 6 mps 761 mmHg 83%
    18:00 +26°C° 0.4 mm 5 mps 761 mmHg 84%
    19:00 +25°C° 0.4 mm 5 mps 761 mmHg 85%
    20:00 +25°C° 0.1 mm 5 mps 762 mmHg 85%
    21:00 +25°C° 0.1 mm 5 mps 762 mmHg 85%
    22:00 +25°C° 0.1 mm 4 mps 763 mmHg 85%
    23:00 +25°C° 0.1 mm 5 mps 762 mmHg 85%
    Show more